period_start,C,m1,H,J0,J1,J2,J3,J4,J5,JA,JB,JC,JD,JJ,JK,JN,#
2015-05-22 00:03:16,0.01,0.31,0.00,23.15,27.20,29.99,4.77,26.63,1020.04,2035.99,3349.02,3231.01,3498.00,350.48,348.87,13.31,0000 0000 0000 0000 000000
2015-05-22 00:08:18,0.06,0.31,0.00,23.19,27.20,29.94,4.89,26.59,1020.04,2035.99,3348.35,3230.75,3497.41,350.21,348.71,13.33,0000 0000 0000 0000 000000
2015-05-22 00:13:19,0.03,0.31,0.00,23.22,27.20,29.90,4.74,26.44,1020.04,2035.99,3347.89,3230.12,3497.01,349.95,348.62,13.36,0000 0000 0000 0000 000000
2015-05-22 00:18:20,0.04,0.31,0.00,23.23,27.20,29.88,4.83,26.57,1020.04,2035.99,3347.09,3229.98,3496.64,350.48,348.92,13.39,0000 0000 0000 0000 000000
2015-05-22 00:23:21,0.06,0.31,0.00,23.19,27.20,29.88,4.80,26.52,1020.04,2035.99,3346.51,3229.56,3496.04,349.99,348.70,13.42,0000 0000 0000 0000 000000
2015-05-22 00:28:23,0.01,0.32,0.00,23.04,27.20,29.90,4.79,26.56,1020.04,2035.99,3346.00,3229.05,3495.98,349.74,348.55,13.45,0000 0000 0000 0000 000000
2015-05-22 00:33:24,0.04,0.32,0.00,23.00,27.20,29.80,4.81,26.56,1020.04,2035.99,3345.29,3229.00,3495.58,350.26,349.12,13.48,0000 0000 0000 0000 000000
2015-05-22 00:38:26,0.02,0.32,0.00,23.03,27.20,29.86,4.72,26.60,1020.03,2035.99,3344.95,3228.73,3495.01,349.62,348.42,13.51,0000 0000 0000 0000 000000
2015-05-22 00:43:27,0.05,0.32,0.00,23.14,27.19,29.88,4.75,26.64,1020.02,2035.99,3344.20,3228.12,3494.92,349.16,348.09,13.54,0000 0000 0000 0000 000000
2015-05-22 00:48:29,0.04,0.32,0.00,23.20,27.19,29.83,4.71,26.52,1020.02,2035.99,3343.70,3228.00,3494.17,349.26,348.06,13.57,0000 0000 0000 0000 000000
2015-05-22 00:53:30,0.04,0.32,0.00,23.01,27.18,29.86,4.77,26.64,1020.02,2035.99,3343.00,3227.56,3493.96,349.68,348.51,13.60,0000 0000 0000 0000 000000
2015-05-22 00:58:31,0.05,0.32,0.00,22.92,27.17,29.77,4.81,26.90,1019.94,2035.99,3342.27,3227.02,3493.23,350.03,348.93,13.63,0000 0000 0000 0000 000000
2015-05-22 01:03:32,0.00,0.32,0.00,22.94,27.17,29.71,4.72,26.63,1019.69,2035.99,3341.99,3227.00,3493.01,349.45,348.29,13.66,0000 0000 0000 0000 000000
2015-05-22 01:08:34,0.02,0.32,0.00,23.01,27.16,29.81,4.78,26.66,1019.64,2035.99,3341.63,3226.87,3492.95,350.22,348.91,13.69,0000 0000 0000 0000 000000
2015-05-22 01:13:35,0.06,0.33,0.00,23.17,27.15,29.75,4.76,26.68,1019.77,2035.99,3341.00,3226.10,3492.17,350.16,348.63,13.72,0000 0000 0000 0000 000000
2015-05-22 01:18:36,0.02,0.33,0.00,23.25,27.15,29.70,4.76,26.52,1019.77,2035.99,3340.30,3225.98,3491.98,349.88,348.31,13.74,0000 0000 0000 0000 000000
2015-05-22 01:23:37,0.08,0.33,0.00,23.16,27.15,29.83,4.77,26.61,1019.74,2035.99,3339.65,3225.46,3491.40,350.04,348.60,13.77,0000 0000 0000 0000 000000
2015-05-22 01:28:39,0.02,0.33,0.00,23.03,27.15,29.80,4.87,26.65,1019.74,2035.99,3338.84,3225.00,3490.91,350.27,348.85,13.80,0000 0000 0000 0000 000000
2015-05-22 01:33:40,0.07,0.33,0.00,22.97,27.15,29.72,4.88,26.69,1019.65,2035.99,3338.05,3224.36,3490.13,349.89,348.24,13.83,0000 0000 0000 0000 000000
2015-05-22 01:38:41,0.02,0.33,0.00,23.02,27.13,29.69,4.74,26.55,1019.57,2035.99,3337.40,3224.01,3489.98,349.48,347.95,13.86,0000 0000 0000 0000 000000
2015-05-22 01:43:42,0.03,0.33,0.00,23.12,27.12,29.78,4.79,26.59,1019.56,2035.99,3336.96,3223.89,3489.51,350.03,348.55,13.89,0000 0000 0000 0000 000000
2015-05-22 01:48:43,0.05,0.34,0.00,23.20,27.12,29.66,4.84,26.51,1019.55,2035.99,3336.31,3223.33,3489.01,350.24,348.69,13.92,0000 0000 0000 0000 000000
2015-05-22 01:53:44,0.01,0.34,0.00,23.01,27.12,29.75,4.74,26.74,1019.56,2035.99,3335.96,3223.01,3488.92,349.75,348.42,13.95,0000 0000 0000 0000 000000
2015-05-22 01:58:45,0.04,0.34,0.00,22.91,27.12,29.69,4.82,26.75,1019.55,2035.99,3335.15,3222.97,3488.24,350.15,349.02,13.98,0000 0000 0000 0000 000000
2015-05-22 02:03:46,0.02,0.34,0.00,22.98,27.10,29.65,4.82,26.60,1019.55,2036.01,3334.98,3222.68,3488.01,350.22,348.83,14.01,0000 0000 0000 0000 000000
2015-05-22 02:08:48,0.04,0.34,0.00,23.09,27.10,29.77,4.76,26.68,1019.54,2036.01,3334.41,3222.13,3487.99,350.44,348.99,14.04,0000 0000 0000 0000 000000
2015-05-22 02:13:49,0.02,0.34,0.00,23.20,27.10,29.64,4.77,26.71,1019.55,2036.01,3334.00,3222.00,3487.52,349.99,348.47,14.07,0000 0000 0000 0000 000000
2015-05-22 02:18:50,0.03,0.34,0.00,23.05,27.10,29.76,4.79,26.69,1019.55,2036.01,3333.38,3221.87,3487.01,350.22,348.90,14.10,0000 0000 0000 0000 000000
2015-05-22 02:23:51,0.04,0.34,0.00,22.98,27.10,29.70,4.76,26.68,1019.55,2036.02,3332.93,3221.13,3486.89,349.97,348.79,14.12,0000 0000 0000 0000 000000
2015-05-22 02:28:53,0.04,0.34,0.00,23.02,27.08,29.70,4.83,26.63,1019.53,2036.02,3332.17,3221.00,3486.24,349.81,348.50,14.15,0000 0000 0000 0000 000000
2015-05-22 02:33:54,0.02,0.34,0.00,23.14,27.07,29.73,4.83,26.78,1019.52,2036.07,3332.00,3220.99,3486.02,350.12,348.56,14.18,0000 0000 0000 0000 000000
2015-05-22 02:38:55,0.05,0.34,0.00,23.25,27.07,29.68,4.80,26.64,1019.53,2036.07,3331.53,3220.57,3485.94,350.11,348.54,14.21,0000 0000 0000 0000 000000
2015-05-22 02:43:56,0.03,0.35,0.00,23.09,27.07,29.76,4.79,26.57,1019.50,2036.03,3330.89,3220.03,3485.18,349.82,348.70,14.24,0000 0000 0000 0000 000000
2015-05-22 02:48:58,0.04,0.35,0.00,22.98,27.07,29.68,4.74,26.57,1019.47,2036.04,3330.05,3219.84,3484.97,349.69,348.32,14.27,0000 0000 0000 0000 000000
2015-05-22 02:53:59,0.07,0.35,0.00,22.93,27.07,29.66,4.82,26.61,1019.41,2036.05,3329.32,3219.13,3484.43,349.96,348.65,14.30,0000 0000 0000 0000 000000
2015-05-22 02:59:00,0.01,0.35,0.00,23.01,27.06,29.65,4.77,26.75,1019.30,2036.07,3328.99,3219.00,3484.01,349.66,348.26,14.33,0000 0000 0000 0000 000000
2015-05-22 03:04:01,0.06,0.35,0.00,23.12,27.05,29.70,4.77,26.68,1019.22,2036.30,3328.77,3218.99,3484.00,350.16,348.46,14.36,0000 0000 0000 0000 000000
2015-05-22 03:09:03,0.06,0.35,0.00,23.13,27.05,29.68,4.75,26.68,1019.18,2036.31,3328.05,3218.57,3483.51,349.65,348.08,14.39,0000 0000 0000 0000 000000
2015-05-22 03:14:04,0.02,0.36,0.00,22.97,27.05,29.69,4.79,26.72,1019.20,2036.37,3327.88,3218.05,3483.02,350.05,348.58,14.42,0000 0000 0000 0000 000000
2015-05-22 03:19:05,0.02,0.36,0.00,22.98,27.05,29.65,4.85,26.74,1019.34,2036.35,3327.08,3217.99,3482.97,350.18,348.78,14.45,0000 0000 0000 0000 000000
2015-05-22 03:24:06,0.03,0.36,0.00,23.09,27.05,29.70,4.71,26.72,1019.23,2036.27,3326.90,3217.62,3482.32,349.81,348.45,14.48,0000 0000 0000 0000 000000
2015-05-22 03:29:07,0.02,0.36,0.00,23.20,27.05,29.64,4.75,26.65,1019.21,2036.19,3326.10,3217.04,3481.99,349.59,347.93,14.51,0000 0000 0000 0000 000000
2015-05-22 03:34:08,0.04,0.36,0.00,23.02,27.05,29.72,4.81,26.73,1019.12,2036.22,3325.68,3216.99,3481.74,350.11,348.39,14.53,0000 0000 0000 0000 000000
2015-05-22 03:39:10,0.03,0.36,0.00,22.96,27.05,29.66,4.81,26.61,1019.13,2036.22,3325.03,3216.77,3481.07,350.04,348.54,14.56,0000 0000 0000 0000 000000
2015-05-22 03:44:11,0.06,0.36,0.00,22.91,27.03,29.62,4.80,26.68,1019.12,2036.30,3324.70,3216.14,3481.00,349.81,348.45,14.59,0000 0000 0000 0000 000000
2015-05-22 03:49:12,0.07,0.36,0.00,22.91,27.02,29.58,4.80,26.71,1019.07,2036.64,3324.04,3216.01,3480.79,350.02,348.76,14.62,0000 0000 0000 0000 000000
2015-05-22 03:54:14,0.06,0.37,0.00,23.03,27.02,29.54,4.81,26.75,1019.07,2036.75,3323.40,3215.94,3480.06,349.92,348.42,14.65,0000 0000 0000 0000 000000
2015-05-22 03:59:15,0.01,0.37,0.00,23.02,27.02,29.54,4.75,26.93,1019.06,2036.72,3322.98,3215.18,3479.94,349.55,348.11,14.68,0000 0000 0000 0000 000000
2015-05-22 04:04:16,0.07,0.37,0.00,23.08,27.00,29.53,4.76,26.82,1019.07,2036.76,3322.31,3214.99,3479.50,349.78,348.23,14.71,0000 0000 0000 0000 000000
2015-05-22 04:09:17,0.05,0.37,0.00,23.16,27.00,29.55,4.81,26.88,1019.08,2036.91,3321.94,3214.59,3479.02,349.82,348.14,14.74,0000 0000 0000 0000 000000
2015-05-22 04:14:19,0.05,0.37,0.00,23.08,27.00,29.63,4.75,26.71,1019.09,2036.95,3321.16,3214.01,3478.62,349.88,348.22,14.77,0000 0000 0000 0000 000000
2015-05-22 04:19:20,0.02,0.37,0.00,22.98,27.00,29.63,4.75,26.68,1019.08,2036.96,3320.73,3213.93,3478.03,349.47,347.92,14.80,0000 0000 0000 0000 000000
2015-05-22 04:24:21,0.04,0.37,0.00,22.97,27.00,29.58,4.80,26.77,1019.08,2036.97,3320.03,3213.52,3477.99,350.04,348.76,14.83,0000 0000 0000 0000 000000
2015-05-22 04:29:23,0.02,0.37,0.00,22.94,27.00,29.59,4.81,26.73,1019.08,2036.98,3319.95,3213.03,3477.71,349.86,348.47,14.86,0000 0000 0000 0000 000000
2015-05-22 04:34:24,0.03,0.38,0.00,22.93,26.98,29.58,4.80,26.69,1019.07,2036.97,3319.23,3213.00,3477.06,350.08,348.66,14.89,0000 0000 0000 0000 000000
2015-05-22 04:39:26,0.02,0.38,0.00,22.90,26.97,29.52,4.76,26.70,1019.07,2036.97,3318.88,3212.78,3477.00,349.98,348.72,14.92,0000 0000 0000 0000 000000
2015-05-22 04:44:27,0.06,0.38,0.00,22.95,26.97,29.53,4.82,26.73,1019.06,2036.99,3318.17,3212.23,3476.73,349.71,348.40,14.94,0000 0000 0000 0000 000000
2015-05-22 04:49:28,0.01,0.38,0.00,23.11,26.97,29.59,4.74,26.75,1019.06,2036.99,3317.89,3211.99,3476.03,349.74,348.19,14.97,0000 0000 0000 0000 000000
2015-05-22 04:54:30,0.07,0.38,0.00,23.24,26.97,29.46,4.83,26.83,1019.07,2036.99,3317.06,3211.42,3475.66,350.60,348.93,15.00,0000 0000 0000 0000 000000
2015-05-22 04:59:31,0.04,0.38,0.00,23.13,26.97,29.61,4.80,26.93,1019.07,2036.97,3316.17,3210.98,3475.01,350.60,349.05,15.03,0000 0000 0000 0000 000000
2015-05-22 05:04:33,0.06,0.38,0.00,22.95,26.97,29.68,4.78,26.92,1019.09,2036.98,3315.80,3210.41,3474.50,349.66,348.14,15.06,0000 0000 0000 0000 000000
2015-05-22 05:09:34,0.02,0.39,0.00,22.96,26.97,29.62,4.76,26.81,1019.07,2036.99,3315.06,3210.00,3474.00,349.60,348.24,15.09,0000 0000 0000 0000 000000
2015-05-22 05:14:35,0.08,0.39,0.00,22.94,26.97,29.60,4.84,26.80,1019.06,2036.99,3314.46,3209.56,3473.47,350.53,348.82,15.12,0000 0000 0000 0000 000000
2015-05-22 05:19:36,0.03,0.39,0.00,22.94,26.97,29.55,4.76,26.73,1019.06,2036.99,3313.74,3208.98,3472.91,349.42,348.01,15.15,0000 0000 0000 0000 000000
2015-05-22 05:24:37,0.10,0.39,0.00,22.91,26.95,29.56,4.74,26.63,1019.06,2036.99,3312.45,3208.13,3472.00,349.67,348.38,15.18,0000 0000 0000 0000 000000
2015-05-22 05:29:39,0.04,0.39,0.00,22.88,26.95,29.48,4.72,26.68,1019.06,2036.99,3311.73,3207.79,3471.28,349.92,348.61,15.21,0000 0000 0000 0000 000000
2015-05-22 05:34:40,0.05,0.40,0.00,22.89,26.95,29.46,4.80,26.82,1019.06,2036.99,3310.88,3207.06,3470.98,349.81,348.54,15.24,0000 0000 0000 0000 000000
2015-05-22 05:39:41,0.04,0.40,0.00,23.00,26.95,29.46,4.69,26.80,1019.05,2036.99,3310.08,3206.91,3470.28,350.09,348.43,15.27,0000 0000 0000 0000 000000
2015-05-22 05:44:42,0.06,0.40,0.00,23.11,26.95,29.49,4.82,26.86,1019.04,2036.99,3309.41,3206.12,3469.99,350.25,348.64,15.30,0000 0000 0000 0000 000000
2015-05-22 05:49:43,0.02,0.40,0.00,23.09,26.95,29.56,4.81,26.77,1019.02,2036.99,3309.00,3205.99,3469.63,350.04,348.50,15.33,0000 0000 0000 0000 000000
2015-05-22 05:54:45,0.06,0.40,0.00,22.94,26.95,29.62,4.83,26.88,1019.06,2036.99,3308.31,3205.52,3469.02,350.01,348.49,15.35,0000 0000 0000 0000 000000
2015-05-22 05:59:46,0.01,0.40,0.00,22.93,26.94,29.59,4.74,26.93,1019.06,2036.99,3307.98,3205.03,3468.85,349.88,348.52,15.38,0000 0000 0000 0000 000000
2015-05-22 06:04:47,0.04,0.40,0.00,22.96,26.93,29.55,4.84,26.71,1019.06,2036.99,3307.56,3205.00,3468.22,349.95,348.44,15.41,0000 0000 0000 0000 000000
2015-05-22 06:09:48,0.03,0.40,0.00,23.08,26.93,29.59,4.81,26.75,1019.06,2036.99,3307.00,3204.64,3467.99,350.12,348.50,15.44,0000 0000 0000 0000 000000
2015-05-22 06:14:50,0.05,0.40,0.00,23.16,26.95,29.54,4.81,26.71,1019.06,2036.99,3306.43,3204.03,3467.52,349.98,348.36,15.47,0000 0000 0000 0000 000000
2015-05-22 06:19:51,0.01,0.41,0.00,22.96,26.95,29.71,4.78,26.77,1019.06,2036.99,3305.89,3203.96,3467.01,349.69,348.20,15.50,0000 0000 0000 0000 000000
2015-05-22 06:24:52,0.07,0.41,0.00,22.77,26.95,29.71,4.78,26.78,1019.06,2036.99,3305.06,3203.24,3466.66,349.77,348.51,15.53,0000 0000 0000 0000 000000
2015-05-22 06:29:53,0.04,0.41,0.00,22.94,26.95,29.64,4.74,26.61,1019.06,2036.99,3304.47,3202.94,3466.02,349.71,348.30,15.56,0000 0000 0000 0000 000000
2015-05-22 06:34:55,0.09,0.41,0.00,23.07,26.95,29.64,4.76,26.69,1019.06,2036.99,3303.25,3202.09,3465.17,349.85,348.34,15.59,0000 0000 0000 0000 000000
2015-05-22 06:39:56,0.09,0.41,0.00,23.06,26.95,29.64,4.80,26.70,1019.07,2036.99,3302.23,3201.33,3464.39,350.02,348.44,15.62,0000 0000 0000 0000 000000
2015-05-22 06:44:57,0.06,0.42,0.00,22.92,26.95,29.67,4.81,26.64,1019.08,2036.99,3301.17,3200.76,3463.67,350.01,348.49,15.65,0000 0000 0000 0000 000000
2015-05-22 06:49:58,0.06,0.42,0.00,22.90,26.95,29.65,4.76,26.65,1019.08,2036.99,3300.19,3200.03,3463.01,349.69,348.42,15.68,0000 0000 0000 0000 000000
2015-05-22 06:55:00,0.06,0.42,0.00,22.88,26.95,29.59,4.77,26.65,1019.07,2036.98,3299.57,3199.72,3462.48,350.10,348.43,15.71,0000 0000 0000 0000 000000
2015-05-22 07:00:01,0.04,0.42,0.00,22.86,26.95,29.50,4.75,26.83,1019.06,2036.99,3298.90,3199.04,3462.01,349.94,348.61,15.74,0000 0000 0000 0000 000000
2015-05-22 07:05:02,0.05,0.42,0.00,22.79,26.95,29.48,4.75,26.77,1019.06,2036.99,3298.04,3198.92,3461.49,350.26,349.13,15.76,0000 0000 0000 0000 000000
2015-05-22 07:10:03,0.07,0.43,0.00,22.87,26.95,29.46,4.83,26.81,1019.06,2036.99,3297.08,3198.11,3460.97,350.21,348.89,15.79,0000 0000 0000 0000 000000
2015-05-22 07:15:04,0.05,0.43,0.00,22.93,26.95,29.46,4.82,26.72,1019.06,2036.99,3296.38,3197.97,3460.22,350.48,349.05,15.82,0000 0000 0000 0000 000000
2015-05-22 07:20:06,0.07,0.43,0.00,23.04,26.94,29.45,4.81,26.68,1019.03,2036.99,3295.68,3197.24,3459.87,350.39,348.65,15.85,0000 0000 0000 0000 000000
2015-05-22 07:25:07,0.04,0.43,0.00,23.08,26.94,29.56,4.81,26.74,1018.84,2036.99,3294.88,3196.89,3459.10,349.53,347.96,15.88,0000 0000 0000 0000 000000
2015-05-22 07:30:08,0.08,0.43,0.00,23.18,26.94,29.47,4.78,26.81,1018.93,2036.99,3294.00,3196.10,3458.59,350.72,348.89,15.91,0000 0000 0000 0000 000000
2015-05-22 07:35:09,0.05,0.43,0.00,23.03,26.95,29.64,4.78,26.73,1018.99,2036.99,3293.15,3195.73,3458.01,349.77,348.27,15.94,0000 0000 0000 0000 000000
2015-05-22 07:40:10,0.06,0.44,0.00,22.92,26.95,29.64,4.75,26.69,1018.98,2036.99,3292.48,3195.05,3457.35,349.08,347.61,15.97,0000 0000 0000 0000 000000
2015-05-22 07:45:12,0.04,0.44,0.00,22.92,26.95,29.61,4.81,26.72,1018.96,2036.99,3291.73,3194.75,3456.95,349.84,348.29,16.00,0000 0000 0000 0000 000000
2015-05-22 07:50:13,0.05,0.44,0.00,22.89,26.95,29.52,4.81,26.77,1019.03,2036.99,3291.04,3194.08,3456.35,349.73,348.37,16.03,0000 0000 0000 0000 000000
2015-05-22 07:55:15,0.02,0.44,0.00,22.83,26.95,29.48,4.85,26.73,1019.06,2036.99,3290.60,3193.99,3456.00,350.20,349.02,16.06,0000 0000 0000 0000 000000
2015-05-22 08:00:16,0.04,0.44,0.00,22.81,26.93,29.41,4.75,26.77,1019.05,2036.99,3290.00,3193.68,3455.79,349.73,348.72,16.09,0000 0000 0000 0000 000000
2015-05-22 08:05:17,0.06,0.44,0.00,22.84,26.92,29.44,4.73,26.68,1019.06,2036.99,3289.36,3193.04,3455.07,349.85,348.60,16.12,0000 0000 0000 0000 000000
2015-05-22 08:10:19,0.01,0.44,0.00,22.93,26.92,29.43,4.81,26.63,1019.06,2036.99,3288.84,3192.95,3454.92,350.22,348.85,16.15,0000 0000 0000 0000 000000
2015-05-22 08:15:20,0.08,0.45,0.00,23.00,26.92,29.44,4.79,26.69,1019.06,2036.99,3288.02,3192.22,3454.15,349.40,347.92,16.17,0000 0000 0000 0000 000000
2015-05-22 08:20:21,0.04,0.45,0.00,22.99,26.92,29.51,4.76,26.76,1019.06,2036.99,3287.22,3191.88,3453.72,350.48,349.03,16.20,0000 0000 0000 0000 000000
2015-05-22 08:25:22,0.07,0.45,0.00,23.05,26.92,29.49,4.75,26.78,1019.05,2036.99,3286.51,3191.12,3453.03,349.21,347.70,16.23,0000 0000 0000 0000 000000
2015-05-22 08:30:24,0.02,0.45,0.00,22.87,26.92,29.64,4.81,26.71,1019.02,2036.99,3285.83,3190.97,3452.74,350.30,349.07,16.26,0000 0000 0000 0000 000000
2015-05-22 08:35:25,0.07,0.45,0.00,22.84,26.92,29.57,4.71,26.63,1019.04,2036.99,3285.01,3190.31,3452.03,349.70,348.60,16.29,0000 0000 0000 0000 000000
2015-05-22 08:40:26,0.11,0.45,0.00,22.81,26.92,29.56,4.88,26.68,1019.05,2036.99,3283.83,3189.50,3451.27,350.30,349.08,16.32,0000 0000 0000 0000 000000
2015-05-22 08:45:28,0.11,0.46,0.00,22.80,26.92,29.51,4.77,26.62,1019.06,2036.99,3282.32,3188.48,3450.05,349.64,348.40,16.35,0000 0000 0000 0000 000000
2015-05-22 08:50:29,0.13,0.46,0.00,22.90,26.92,29.60,4.79,26.77,1019.06,2036.99,3280.60,3187.28,3448.84,349.46,347.92,16.38,0000 0000 0000 0000 000000
2015-05-22 08:55:31,0.08,0.46,0.00,23.07,26.92,29.53,4.76,26.73,1019.06,2036.99,3279.50,3186.55,3447.89,349.95,348.35,16.41,0000 0000 0000 0000 000000
2015-05-22 09:00:32,0.10,0.47,0.00,23.00,26.92,29.61,4.81,26.77,1019.06,2036.99,3277.98,3185.36,3446.92,350.01,348.59,16.44,0000 0000 0000 0000 000000
2015-05-22 09:05:34,0.12,0.47,0.00,22.84,26.92,29.64,4.73,26.56,1019.06,2036.99,3276.54,3184.51,3445.85,349.45,348.16,16.47,0000 0000 0000 0000 000000
2015-05-22 09:10:35,0.04,0.47,0.00,22.84,26.92,29.60,4.80,26.60,1019.06,2036.99,3275.65,3184.01,3445.06,350.01,348.57,16.50,0000 0000 0000 0000 000000
2015-05-22 09:15:36,0.05,0.47,0.00,22.81,26.92,29.50,4.78,26.68,1019.07,2036.99,3274.88,3183.58,3444.82,349.72,348.36,16.53,0000 0000 0000 0000 000000
2015-05-22 09:20:37,0.05,0.48,0.00,22.82,26.92,29.50,4.81,26.63,1019.07,2036.99,3274.07,3183.03,3444.07,349.58,348.34,16.56,0000 0000 0000 0000 000000
2015-05-22 09:25:38,0.07,0.48,0.00,22.90,26.92,29.49,4.78,26.57,1019.06,2037.00,3273.47,3182.65,3443.70,349.66,348.30,16.58,0000 0000 0000 0000 000000
2015-05-22 09:30:39,0.16,0.48,0.00,22.95,26.92,29.55,4.76,26.80,1019.06,2037.00,3271.47,3181.18,3442.07,349.69,348.30,16.61,0000 0000 0000 0000 000000
2015-05-22 09:35:40,0.08,0.49,0.00,23.02,26.92,29.57,4.84,26.71,1019.06,2037.00,3270.33,3180.17,3441.06,350.04,348.59,16.64,0000 0000 0000 0000 000000
2015-05-22 09:40:42,0.00,0.49,0.00,22.85,26.92,29.63,4.75,26.74,1019.06,2037.00,3269.97,3180.00,3440.98,349.59,348.31,16.67,0000 0000 0000 0000 000000
2015-05-22 09:45:43,0.05,0.49,0.00,22.80,26.93,29.57,4.80,26.70,1019.07,2037.00,3269.29,3179.89,3440.42,349.76,348.56,16.70,0000 0000 0000 0000 000000
2015-05-22 09:50:44,0.03,0.49,0.00,22.80,26.92,29.52,4.78,26.63,1019.07,2037.00,3268.97,3179.24,3440.01,349.69,348.47,16.73,0000 0000 0000 0000 000000
2015-05-22 09:55:45,0.02,0.49,0.00,22.88,26.92,29.53,4.83,26.66,1019.08,2037.00,3268.44,3179.01,3440.00,350.27,349.00,16.76,0000 0000 0000 0000 000000
2015-05-22 10:00:47,0.01,0.49,0.00,22.93,26.92,29.57,4.83,26.77,1019.08,2037.00,3268.01,3179.00,3439.84,349.80,348.28,16.79,0000 0000 0000 0000 000000
2015-05-22 10:05:48,0.05,0.49,0.00,23.03,26.93,29.49,4.72,26.55,1019.09,2037.00,3267.61,3178.72,3439.11,349.94,348.43,16.82,0000 0000 0000 0000 000000
2015-05-22 10:10:49,0.06,0.49,0.00,22.95,26.94,29.63,4.79,26.61,1019.10,2037.00,3266.78,3177.97,3438.73,350.28,348.85,16.85,0000 0000 0000 0000 000000
2015-05-22 10:15:50,0.19,0.50,0.00,22.81,26.95,29.66,4.85,26.65,1019.10,2037.00,3264.74,3176.59,3437.13,349.90,348.66,16.88,0000 0000 0000 0000 000000
2015-05-22 10:20:51,0.24,0.50,0.00,22.84,26.95,29.60,4.79,26.66,1019.08,2037.00,3261.63,3174.39,3434.75,350.10,349.01,16.91,0000 0000 0000 0000 000000
2015-05-22 10:25:53,0.14,0.51,0.00,22.75,26.94,29.56,4.72,26.70,1019.08,2037.00,3259.51,3172.81,3433.17,350.04,348.87,16.94,0000 0000 0000 0000 000000
2015-05-22 10:30:54,0.07,0.51,0.00,22.81,26.93,29.51,4.88,26.68,1019.07,2037.00,3258.50,3172.06,3432.41,350.14,348.89,16.97,0000 0000 0000 0000 000000
2015-05-22 10:35:55,0.01,0.51,0.00,22.91,26.93,29.56,4.83,26.74,1019.07,2037.00,3258.00,3171.97,3432.00,350.32,348.69,16.99,0000 0000 0000 0000 000000
2015-05-22 10:40:57,0.08,0.51,0.00,22.98,26.94,29.60,4.72,26.77,1019.06,2037.00,3257.29,3171.35,3431.52,349.37,348.07,17.02,0000 0000 0000 0000 000000
2015-05-22 10:45:58,0.10,0.52,0.00,22.81,26.95,29.64,4.83,26.74,1019.06,2036.99,3256.05,3170.40,3430.46,350.12,348.87,17.05,0000 0000 0000 0000 000000
2015-05-22 10:50:59,0.03,0.52,0.00,22.74,26.94,29.57,4.85,26.68,1019.06,2036.99,3255.10,3169.99,3429.99,350.24,349.08,17.08,0000 0000 0000 0000 000000
2015-05-22 10:56:01,0.07,0.52,0.00,22.82,26.94,29.57,4.81,26.77,1019.06,2036.99,3254.55,3169.50,3429.34,349.68,348.41,17.11,0000 0000 0000 0000 000000
2015-05-22 11:01:02,0.02,0.52,0.00,22.92,26.94,29.59,4.81,26.82,1019.05,2036.99,3253.97,3169.01,3428.99,349.98,348.32,17.14,0000 0000 0000 0000 000000
2015-05-22 11:06:04,0.07,0.52,0.00,22.89,26.95,29.60,4.79,26.82,1019.05,2036.99,3253.14,3168.74,3428.32,349.70,348.26,17.17,0000 0000 0000 0000 000000
2015-05-22 11:11:05,0.04,0.53,0.00,22.75,26.95,29.60,4.82,26.64,1019.05,2036.99,3252.57,3168.06,3428.01,349.99,348.71,17.20,0000 0000 0000 0000 000000
2015-05-22 11:16:06,0.02,0.53,0.00,22.72,26.95,29.55,4.79,26.72,1019.05,2036.99,3252.01,3167.99,3427.62,349.92,348.76,17.23,0000 0000 0000 0000 000000
2015-05-22 11:21:08,0.07,0.53,0.00,22.78,26.95,29.58,4.77,26.77,1019.04,2036.99,3251.37,3167.36,3427.03,349.83,348.65,17.26,0000 0000 0000 0000 000000
2015-05-22 11:26:09,0.01,0.53,0.00,22.91,26.95,29.55,4.79,26.83,1019.04,2036.99,3251.01,3167.01,3426.93,349.67,348.11,17.29,0000 0000 0000 0000 000000
2015-05-22 11:31:10,0.05,0.53,0.00,22.83,26.95,29.65,4.79,26.77,1019.04,2036.99,3250.39,3166.93,3426.18,350.05,348.76,17.32,0000 0000 0000 0000 000000
2015-05-22 11:36:12,0.03,0.53,0.00,22.74,26.95,29.62,4.76,26.71,1018.92,2036.99,3249.99,3166.30,3425.99,349.75,348.41,17.35,0000 0000 0000 0000 000000
2015-05-22 11:41:13,0.04,0.53,0.00,22.82,26.95,29.65,4.76,26.82,1018.74,2036.99,3249.35,3166.01,3425.72,349.50,348.13,17.38,0000 0000 0000 0000 000000
2015-05-22 11:46:14,0.02,0.53,0.00,22.93,26.95,29.61,4.76,26.78,1018.67,2036.99,3249.00,3165.96,3425.06,349.24,347.72,17.40,0000 0000 0000 0000 000000
2015-05-22 11:51:16,0.06,0.54,0.00,22.89,26.95,29.67,4.74,26.78,1018.62,2036.99,3248.46,3165.27,3424.94,349.79,348.39,17.43,0000 0000 0000 0000 000000
2015-05-22 11:56:17,0.04,0.54,0.00,22.72,26.95,29.68,4.77,26.85,1018.69,2036.99,3247.88,3165.00,3424.23,350.27,349.02,17.46,0000 0000 0000 0000 000000
2015-05-22 12:01:18,0.03,0.54,0.00,22.77,26.95,29.61,4.80,26.88,1018.66,2036.99,3247.06,3164.86,3423.99,350.01,348.66,17.49,0000 0000 0000 0000 000000
2015-05-22 12:06:19,0.05,0.54,0.00,22.83,26.95,29.68,4.82,26.76,1018.66,2036.99,3246.90,3164.17,3423.77,350.31,348.90,17.52,0000 0000 0000 0000 000000
2015-05-22 12:11:20,0.03,0.54,0.00,22.92,26.97,29.63,4.76,26.77,1018.66,2036.99,3246.13,3164.00,3423.06,349.65,348.14,17.55,0000 0000 0000 0000 000000
2015-05-22 12:16:22,0.06,0.54,0.00,22.87,26.97,29.68,4.81,26.76,1018.68,2036.99,3245.67,3163.58,3422.72,349.95,348.40,17.58,0000 0000 0000 0000 000000
2015-05-22 12:21:23,0.03,0.54,0.00,22.68,26.97,29.65,4.80,26.72,1018.66,2036.99,3244.99,3163.01,3422.03,349.97,348.73,17.61,0000 0000 0000 0000 000000
2015-05-22 12:26:24,0.05,0.54,0.00,22.74,26.97,29.56,4.78,26.75,1018.70,2036.99,3244.18,3162.82,3421.81,349.93,348.58,17.64,0000 0000 0000 0000 000000
2015-05-22 12:31:25,0.04,0.55,0.00,22.81,26.97,29.68,4.79,26.80,1018.67,2036.99,3243.97,3162.09,3421.07,350.29,348.74,17.67,0000 0000 0000 0000 000000
2015-05-22 12:36:26,0.03,0.55,0.00,22.91,26.97,29.62,4.75,26.84,1018.63,2036.99,3243.24,3161.99,3420.93,349.18,347.85,17.70,0000 0000 0000 0000 000000
2015-05-22 12:41:28,0.06,0.55,0.00,22.99,26.97,29.61,4.80,26.83,1018.60,2036.99,3242.85,3161.47,3420.15,349.88,348.26,17.73,0000 0000 0000 0000 000000
2015-05-22 12:46:29,0.03,0.55,0.00,23.04,26.98,29.66,4.82,26.73,1018.57,2036.98,3242.07,3161.00,3419.95,349.75,348.07,17.76,0000 0000 0000 0000 000000
2015-05-22 12:51:30,0.04,0.55,0.00,23.07,27.00,29.70,4.80,26.86,1018.57,2036.98,3241.73,3160.82,3419.18,349.52,347.64,17.79,0000 0000 0000 0000 000000
2015-05-22 12:56:32,0.05,0.55,0.00,22.99,27.00,29.77,4.80,27.11,1018.57,2036.98,3241.00,3160.12,3418.95,349.77,348.20,17.82,0000 0000 0000 0000 000000
2015-05-22 13:01:33,0.04,0.55,0.00,22.77,27.00,29.74,4.75,26.88,1018.57,2036.96,3240.29,3160.00,3418.25,349.85,348.31,17.84,0000 0000 0000 0000 000000